Hourly Weather Rudevschina

Today, 20 April, Tuesday

Time Temperature Precipitation Wind Pressure Humidity
00:00 +6°C° 0 mm 2 mps 751 mmHg 81%
01:00 +6°C° 0 mm 2 mps 751 mmHg 83%
02:00 +6°C° 0 mm 2 mps 751 mmHg 84%
03:00 +5°C° 0 mm 2 mps 750 mmHg 85%
04:00 +5°C° 0 mm 2 mps 750 mmHg 87%
05:00 +5°C° 0 mm 2 mps 750 mmHg 88%
06:00 +6°C° 0 mm 2 mps 750 mmHg 84%
07:00 +7°C° 0 mm 2 mps 750 mmHg 80%
08:00 +8°C° 0 mm 2 mps 750 mmHg 76%
09:00 +9°C° 0.1 mm 2 mps 749 mmHg 72%
10:00 +12°C° 0.1 mm 2 mps 749 mmHg 68%
11:00 +12°C° 0.1 mm 3 mps 749 mmHg 65%
12:00 +13°C° 0.2 mm 2 mps 748 mmHg 62%
13:00 +13°C° 0.2 mm 2 mps 748 mmHg 60%
14:00 +14°C° 0.2 mm 2 mps 748 mmHg 58%
15:00 +14°C° 0.3 mm 2 mps 747 mmHg 58%
16:00 +14°C° 0.3 mm 1 mps 747 mmHg 58%
17:00 +13°C° 0.3 mm 1 mps 747 mmHg 58%
18:00 +12°C° 0.4 mm 1 mps 747 mmHg 64%
19:00 +11°C° 0.4 mm 1 mps 746 mmHg 69%
20:00 +10°C° 0.4 mm 1 mps 746 mmHg 75%
21:00 +10°C° 0 mm 1 mps 746 mmHg 78%
22:00 +9°C° 0 mm 1 mps 746 mmHg 80%
23:00 +9°C° 0 mm 1 mps 746 mmHg 83%

Tomorrow, 21 April, Wednesday

Time Temperature Precipitation Wind Pressure Humidity
00:00 +8°C° 0.1 mm 1 mps 746 mmHg 85%
01:00 +8°C° 0.1 mm 1 mps 746 mmHg 87%
02:00 +7°C° 0.1 mm 1 mps 746 mmHg 89%
03:00 +7°C° 0.1 mm 1 mps 746 mmHg 90%
04:00 +7°C° 0.1 mm 1 mps 745 mmHg 91%
05:00 +6°C° 0.1 mm 1 mps 745 mmHg 93%
06:00 +6°C° 0 mm 2 mps 745 mmHg 88%
07:00 +8°C° 0 mm 2 mps 745 mmHg 84%
08:00 +9°C° 0 mm 2 mps 745 mmHg 79%
09:00 +10°C° 0.2 mm 2 mps 745 mmHg 71%
10:00 +12°C° 0.2 mm 2 mps 745 mmHg 64%
11:00 +14°C° 0.2 mm 2 mps 745 mmHg 56%
12:00 +14°C° 0.4 mm 2 mps 745 mmHg 55%
13:00 +13°C° 0.4 mm 3 mps 744 mmHg 54%
14:00 +14°C° 0.4 mm 3 mps 744 mmHg 53%
15:00 +14°C° 0.3 mm 3 mps 744 mmHg 54%
16:00 +14°C° 0.3 mm 3 mps 744 mmHg 55%
17:00 +13°C° 0.3 mm 3 mps 744 mmHg 56%
18:00 +13°C° 0.1 mm 2 mps 744 mmHg 60%
19:00 +12°C° 0.1 mm 2 mps 744 mmHg 65%
20:00 +10°C° 0.1 mm 2 mps 744 mmHg 69%
21:00 +10°C° 0 mm 1 mps 744 mmHg 71%
22:00 +10°C° 0 mm 1 mps 744 mmHg 72%
23:00 +9°C° 0 mm 1 mps 744 mmHg 74%

Day after tomorrow, 22 April, Thursday

Time Temperature Precipitation Wind Pressure Humidity
00:00 +9°C° 0 mm 1 mps 744 mmHg 76%
01:00 +8°C° 0 mm 2 mps 744 mmHg 77%
02:00 +8°C° 0 mm 2 mps 744 mmHg 79%
03:00 +7°C° 0.1 mm 2 mps 744 mmHg 81%
04:00 +7°C° 0.1 mm 3 mps 744 mmHg 84%
05:00 +7°C° 0.1 mm 3 mps 744 mmHg 87%
06:00 +6°C° 0 mm 4 mps 744 mmHg 87%
07:00 +5°C° 0 mm 5 mps 745 mmHg 88%
08:00 +4°C° 0 mm 6 mps 745 mmHg 88%
09:00 +5°C° 0 mm 6 mps 746 mmHg 77%
10:00 +7°C° 0 mm 6 mps 746 mmHg 66%
11:00 +8°C° 0 mm 5 mps 746 mmHg 55%
12:00 +8°C° 0 mm 6 mps 746 mmHg 50%
13:00 +9°C° 0 mm 6 mps 746 mmHg 45%
14:00 +9°C° 0 mm 6 mps 746 mmHg 40%
15:00 +9°C° 0 mm 6 mps 746 mmHg 44%
16:00 +8°C° 0 mm 5 mps 746 mmHg 47%
17:00 +8°C° 0 mm 5 mps 746 mmHg 51%
18:00 +7°C° 0 mm 5 mps 746 mmHg 57%
19:00 +5°C° 0 mm 4 mps 747 mmHg 63%
20:00 +4°C° 0 mm 4 mps 747 mmHg 70%
21:00 +3°C° 0 mm 4 mps 747 mmHg 74%
22:00 +3°C° 0 mm 3 mps 747 mmHg 78%
23:00 +2°C° 0 mm 3 mps 747 mmHg 82%

23 April, Friday

Time Temperature Precipitation Wind Pressure Humidity
00:00 +1°C° 0 mm 3 mps 747 mmHg 84%
01:00 0°C° 0 mm 4 mps 747 mmHg 87%
02:00 -1°C° 0 mm 4 mps 747 mmHg 89%
03:00 -1°C° 0 mm 4 mps 747 mmHg 89%
04:00 -1°C° 0 mm 4 mps 747 mmHg 90%
05:00 -2°C° 0 mm 4 mps 747 mmHg 90%
06:00 -1°C° 0 mm 4 mps 747 mmHg 84%
07:00 0°C° 0 mm 5 mps 748 mmHg 78%
08:00 +1°C° 0 mm 6 mps 748 mmHg 72%
09:00 +2°C° 0.2 mm 6 mps 748 mmHg 66%
10:00 +3°C° 0.2 mm 6 mps 748 mmHg 59%
11:00 +4°C° 0.2 mm 7 mps 748 mmHg 53%
12:00 +4°C° 0.2 mm 7 mps 748 mmHg 57%
13:00 +4°C° 0.2 mm 7 mps 748 mmHg 61%
14:00 +4°C° 0.2 mm 7 mps 748 mmHg 64%
15:00 +4°C° 0.5 mm 6 mps 748 mmHg 64%
16:00 +4°C° 0.5 mm 6 mps 748 mmHg 63%
17:00 +5°C° 0.5 mm 5 mps 749 mmHg 62%
18:00 +4°C° 0.1 mm 4 mps 749 mmHg 66%
19:00 +3°C° 0.1 mm 4 mps 749 mmHg 70%
20:00 +1°C° 0.1 mm 4 mps 749 mmHg 75%
21:00 0°C° 0 mm 4 mps 750 mmHg 79%
22:00 -1°C° 0 mm 4 mps 750 mmHg 83%
23:00 -2°C° 0 mm 4 mps 750 mmHg 87%

24 April, Saturday

Time Temperature Precipitation Wind Pressure Humidity
00:00 -1°C° 0 mm 3 mps 750 mmHg 87%
01:00 -2°C° 0 mm 3 mps 750 mmHg 88%
02:00 -2°C° 0 mm 3 mps 750 mmHg 88%
03:00 -2°C° 0 mm 4 mps 750 mmHg 85%
04:00 -2°C° 0 mm 4 mps 750 mmHg 81%
05:00 -2°C° 0 mm 4 mps 749 mmHg 78%
06:00 -1°C° 0 mm 5 mps 749 mmHg 74%
07:00 0°C° 0 mm 5 mps 749 mmHg 70%
08:00 +1°C° 0 mm 6 mps 749 mmHg 66%
09:00 +2°C° 0.2 mm 6 mps 749 mmHg 61%
10:00 +4°C° 0.2 mm 7 mps 749 mmHg 56%
11:00 +5°C° 0.2 mm 8 mps 749 mmHg 50%
12:00 +5°C° 0.3 mm 8 mps 749 mmHg 51%
13:00 +5°C° 0.3 mm 8 mps 749 mmHg 51%
14:00 +5°C° 0.3 mm 8 mps 749 mmHg 52%
15:00 +5°C° 0.1 mm 7 mps 749 mmHg 51%
16:00 +5°C° 0.1 mm 7 mps 749 mmHg 49%
17:00 +5°C° 0.1 mm 6 mps 749 mmHg 48%
18:00 +3°C° 0 mm 5 mps 749 mmHg 54%
19:00 +3°C° 0 mm 4 mps 749 mmHg 59%
20:00 +1°C° 0 mm 3 mps 749 mmHg 64%
21:00 0°C° 0 mm 3 mps 749 mmHg 69%
22:00 -1°C° 0 mm 3 mps 749 mmHg 73%
23:00 -2°C° 0 mm 3 mps 750 mmHg 78%

25 April, Sunday

Time Temperature Precipitation Wind Pressure Humidity
00:00 -2°C° 0 mm 3 mps 750 mmHg 81%
01:00 -2°C° 0 mm 3 mps 750 mmHg 84%
02:00 -4°C° 0 mm 3 mps 750 mmHg 87%
03:00 -4°C° 0 mm 3 mps 749 mmHg 87%
04:00 -4°C° 0 mm 3 mps 749 mmHg 86%
05:00 -4°C° 0 mm 3 mps 749 mmHg 86%
06:00 -1°C° 0 mm 3 mps 749 mmHg 76%
07:00 -1°C° 0 mm 4 mps 749 mmHg 66%
08:00 +1°C° 0 mm 4 mps 749 mmHg 56%
09:00 +3°C° 0 mm 4 mps 749 mmHg 53%
10:00 +5°C° 0 mm 5 mps 748 mmHg 49%
11:00 +6°C° 0 mm 5 mps 748 mmHg 46%
12:00 +6°C° 0.1 mm 5 mps 748 mmHg 47%
13:00 +6°C° 0.1 mm 5 mps 748 mmHg 48%
14:00 +5°C° 0.1 mm 6 mps 748 mmHg 49%
15:00 +6°C° 0.3 mm 5 mps 748 mmHg 55%
16:00 +5°C° 0.3 mm 5 mps 748 mmHg 61%
17:00 +5°C° 0.3 mm 5 mps 748 mmHg 67%
18:00 +4°C° 0.3 mm 4 mps 748 mmHg 73%
19:00 +1°C° 0.3 mm 4 mps 748 mmHg 80%
20:00 +1°C° 0.3 mm 3 mps 748 mmHg 86%
21:00 0°C° 0 mm 3 mps 748 mmHg 88%
22:00 0°C° 0 mm 3 mps 748 mmHg 90%
23:00 -1°C° 0 mm 3 mps 749 mmHg 92%
Show more